Regional Weather Roundup
Issued by NWS

Home | Current Version | Previous Version | Text Only | Print | Product List | Glossary On
Versions: 1 2 3 4 5 6 7 8 9 10 11 12 13 14 15 16 17 18 19 20 21 22 23 24 25 26 27 28 29 30 31 32 33 34 35 36 37 38 39 40 41 42 43 44 45 46 47 48 49 50
767
ASUS43 KDTX 170501
RWRMI
MICHIGAN HOURLY REGIONAL WEATHER ROUNDUP
NATIONAL WEATHER SERVICE DETROIT/PONTIAC MI
1200 AM EST TUE JAN 17 2017

NOTE: "FAIR" INDICATES FEW OR NO CLOUDS BELOW 12,000 FEET WITH NO
SIGNIFICANT WEATHER AND/OR OBSTRUCTION TO VISIBILITY.

MIZ047>049-052>055-059>063-066>070-074>076-081>083-170600-
SOUTHEAST LOWER MICHIGAN

CITY           SKY/WX    TMP DP  RH WIND       PRES   REMARKS
ADRIAN         MIX PCPN  32  32 100 E10       30.06F FOG     WCI  24
ALMA           MIX PCPN  33  32  96 E7        30.06F WCI  27
ANN ARBOR      FRZ RAIN  32  32 100 NE10      30.07F FOG     WCI  24
BAD AXE        MIX PCPN  31  30  94 E6        30.12F WCI  25
CARO           MIX PCPN  32  32  99 SE6       30.09F WCI  26
DETROIT CITY   FRZ RAIN  32  30  93 E10         N/A  WCI  24
DETROIT        FRZ RAIN  33  31  92 E7        30.10F FOG     WCI  27
FLINT          LGT RAIN  33  31  92 E10       30.08F WCI  25
GROSSE ILE     CLOUDY    32  31  96 E9        30.08F WCI  24
HILLSDALE      LGT RAIN  32  32 100 E10G16    30.00F VSB 3/4 WCI  24
HOWELL         MIX PCPN  32  31  96 E6        30.05F WCI  27

CITY           SKY/WX    TMP DP  RH WIND       PRES   REMARKS
JACKSON        LGT RAIN  33  31  92 SE9       30.03F FOG     WCI  25
LAMBERTVILLE   DRIZZLE   34  32  94 E6        30.07F WCI  29
LANSING        LGT RAIN  33  31  92 E10       30.04F FOG     WCI  25
LAPEER         NOT AVBL
MASON          LGT RAIN  33  32  98 SE7       30.04S WCI  27
MONROE         MIX PCPN  33  33 100 E9        30.08F WCI  25
MT. CLEMENS    FRZ RAIN  32  31  95 E5        30.11F WCI  27
PONTIAC        FRZ RAIN  31  28  89 E10       30.07F FOG     WCI  22
PORT HOPE        N/A     32  29  88 SE9       30.13F WCI  24
PORT HURON     MIX PCPN  32  28  86 SE5       30.14F WCI  27
TRI CITIES     FRZ RAIN  32  32 100 E9        30.09F FOG     WCI  24
MIDLAND        MIX PCPN  33  32  96 E5        30.09S WCI  28
TROY           LGT SNOW  32  29  90 E6        30.13F WCI  26
SAGINAW HB     MIX PCPN  32  32 100 E3        30.09F
$$
MIZ043>046-050>051-056>058-064>065-071>073-077>080-170600-
SOUTHWEST LOWER MICHIGAN

CITY           SKY/WX    TMP DP  RH WIND       PRES   REMARKS
BATTLE CREEK   LGT RAIN  35  35 100 E7        29.99F FOG     WCI  29
BENTON HARBOR  LGT RAIN  39  37  92 SE14G21   29.92F FOG     WCI  31
BIG RAPIDS     MIX PCPN  33  32  96 E6        30.02F WCI  27
COLDWATER      LGT RAIN  36  36 100 SE13      29.99F WCI  27
FREMONT        LGT RAIN  34  34 100 E8        29.99F WCI  27
HOLLAND        RAIN      35  33  92 E10       29.96F FOG     WCI  27
GRAND RAPIDS   LGT RAIN  33  32  96 E13       30.00F FOG     WCI  24
IONIA          MIX PCPN  32  32 100 E9        30.02F WCI  24
KALAMAZOO      LGT RAIN  36  34  92 SE6       29.98F FOG     WCI  31
LUDINGTON      LGT SNOW  33  33 100 E10       29.99F WCI  25
MARSHALL       LGT RAIN  35  34  97 E8        29.99F WCI  28
MOUNT PLEASANT LGT SNOW  32  32  99 E5        30.07F WCI  28
MUSKEGON       LGT RAIN  36  34  92 E9        29.99F FOG     WCI  29
SOUTH HAVEN    LGT RAIN  37  36  98 SE8G16    29.93F WCI  30
$$
MIZ016>042-170600-
NORTHERN LOWER MICHIGAN

CITY           SKY/WX    TMP DP  RH WIND       PRES   REMARKS
ALPENA         PTCLDY    19  15  84 CALM      30.12F
BEAVER ISLAND  PTCLDY    27  25  93 E5        30.07F FOG     WCI  21
BELLAIRE       PTCLDY    24  23  96 CALM      30.07F
CADILLAC       LGT SNOW  32  32  97 E6        30.02F WCI  27
CHARLEVOIX     CLOUDY    28  24  82 SE5       30.10F WCI  23
FRANKFORT      LGT RAIN  34  33  95 CALM      30.02F
GAYLORD        CLOUDY    29  19  66 CALM      30.06F
GRAYLING       MIX PCPN  31  25  78 E5        30.08F WCI  26
HARBOR SPRINGS PTCLDY    24  22  89 NE5       30.08F WCI  19
HOUGHTON LAKE  MIX PCPN  31  29  92 E8        30.07F WCI  23
MANISTEE       MIX PCPN  32  31  96 E10       30.00F FOG     WCI  24
OSCODA         FLURRIES  32  26  80 CALM      30.13F
PELLSTON       PTCLDY    22  19  89 CALM      30.09F
ROGERS CITY    MOCLDY    26  21  80 CALM      30.12F
TRAVERSE CITY  LGT RAIN  34  28  79 E6        30.04F WCI  29
$$
MIZ007>008-015-170600-
EASTERN UPPER MICHIGAN

CITY           SKY/WX    TMP DP  RH WIND       PRES   REMARKS
KINROSS        CLOUDY    22  21  96 E6        30.11F WCI  14
MACKINAC ISLAN CLOUDY    31  28  88 E6        30.09F WCI  25
NEWBERRY       CLOUDY    22  22  98 E3        30.07F
S. S. MARIE    CLOUDY    25  21  85 E3        30.12S
$$
MIZ004>006-011>014-085-170600-
CENTRAL UPPER MICHIGAN

CITY           SKY/WX    TMP DP  RH WIND       PRES   REMARKS
MANISTIQUE     CLOUDY    21  20  97 CALM      30.06F FOG
SAWYER-GWINN   CLOUDY    22  19  88 CALM      30.02F
$$
MIZ001>003-009>011-084-170600-
WESTERN UPPER MICHIGAN

CITY           SKY/WX    TMP DP  RH WIND       PRES   REMARKS
IRON MOUNTAIN  PTCLDY    22  16  78 CALM      29.99F
HOUGHTON       CLOUDY    30  26  85 E8        30.01F FOG     WCI  22
COPPER HARBOR    N/A     26  24  92 S5        30.04F WCI  20
IRONWOOD       CLOUDY    23  19  85 CALM      30.00S
$$

ABBREVIATIONS USED IN REMARKS
   TC - TEMPERATURE IN CELSIUS
  WCI - WIND CHILL INDEX
   HX - HEAT INDEX
  VSB - VISIBILITY





USA.gov is the U.S. government's official web portal to all federal, state and local government web resources and services.